Torna al catalogo

DMSP 5D-2 F13 DEB

AttivoSSO
NORAD 40681·DEBRIS·🇺🇸 United States

Lanciato Mar 24, 1995 da Vandenberg Space Force Base

Loading…

Prossimi Passaggi (prossime 24 ore)

TLE

AggiornatoSource: Space-Track

Epoca: Sep 13, 2026, 08:04 UTC

1 40681U 95015FV  26256.33639885  .00002339  00000-0  78865-3 0  9999
2 40681  98.6967 293.4692 0006245 148.2398 211.9166 14.37966663593388

Traccia DMSP 5D-2 F13 DEB in tempo reale con AllMySat

Download on the App Store